Tracking 29487 objects as of 10-Sep-2024
HD Live streaming from Space Station
objects crossing your sky now

FENGYUN 1C DEB

Track FENGYUN 1C DEB now!
10-day predictions


NORAD ID: 30477
Int'l Code: 1999-025AGQ
Perigee: 855.7 km
Apogee: 1,515.7 km
Inclination: 99.4 °
Period: 109.0 minutes
Semi major axis: 7556 km
RCS: 0.0105 m2 (small)
Launch date: May 10, 1999
Source: People's Republic of China (PRC)
Launch site: Taiyaun Space Center, China (TSC)

Note: This is SATELLITE DEBRIS
Your satellite tracking list
Your tracking list is empty




NASA's NSSDC Master Catalog

Two Line Element Set (TLE):
1 30477U 99025AGQ 24254.29729706  .00003307  00000-0  49197-2 0  9990
2 30477  99.4215  14.4953 0436678 296.3847  86.8636 13.21606471846873
Source of the keplerian elements: AFSPC